N3WGC-14 Weather Reports


Display with metric or nautical units.
time (UTC)temp
F
wind
direction
speed
MPH
gust
MPH
rain 1hr
in
rain 24hr
in
rain mn
in
humidity
%
barometer
mb
20260505164857 76 108 3.0 3.0 0.00 0.00 0.00 59 1012.0
20260505164357 76 150 3.0 10.0 0.00 0.00 0.00 60 1012.1
20260505163857 76 111 2.0 7.0 0.00 0.00 0.00 60 1012.2
20260505163357 76 138 2.0 3.0 0.00 0.00 0.00 60 1012.2
20260505162857 75 327 3.0 9.0 0.00 0.00 0.00 60 1012.2
20260505162357 75 141 5.0 9.0 0.00 0.00 0.00 61 1012.2
20260505161857 75 227 2.0 10.0 0.00 0.00 0.00 60 1012.3
20260505161356 75 181 3.0 6.0 0.00 0.00 0.00 61 1012.3
20260505160856 75 127 1.0 3.0 0.00 0.00 0.00 62 1012.2
20260505160356 75 190 3.0 9.0 0.00 0.00 0.00 61 1012.3
20260505153355 74 114 3.0 8.0 0.00 0.00 0.00 61 1012.6
20260505152855 74 117 2.0 5.0 0.00 0.00 0.00 62 1012.6
20260505152355 74 97 2.0 3.0 0.00 0.00 0.00 61 1012.5
20260505151855 74 104 2.0 9.0 0.00 0.00 0.00 62 1012.6
20260505151355 74 205 3.0 9.0 0.00 0.00 0.00 61 1012.6
20260505150854 73 88 1.0 3.0 0.00 0.00 0.00 61 1012.6
20260505150354 73 113 5.0 12.0 0.00 0.00 0.00 62 1012.5
20260505140352 71 259 1.0 3.0 0.00 0.00 0.00 63 1012.5
20260505124850 68 213 1.0 3.0 0.00 0.00 0.00 64 1012.8
20260505124350 69 95 1.0 3.0 0.00 0.00 0.00 65 1012.8
20260505123850 69 284 0.0 2.0 0.00 0.00 0.00 66 1012.8
20260505123350 68 30 0.0 2.0 0.00 0.00 0.00 65 1012.7
20260505122850 68 255 1.0 2.0 0.00 0.00 0.00 65 1012.7
20260505122349 67 138 0.0 3.0 0.00 0.00 0.00 67 1012.5
20260505121849 66 253 0.0 1.0 0.00 0.00 0.00 70 1012.5
20260505121349 66 217 1.0 1.0 0.00 0.00 0.00 71 1012.5
20260505120849 65 222 2.0 6.0 0.00 0.00 0.00 70 1012.4
20260505120349 65 318 2.0 3.0 0.00 0.00 0.00 71 1012.4
20260505115849 65 222 2.0 3.0 0.00 0.00 0.00 71 1012.4
20260505115349 65 222 1.0 3.0 0.00 0.00 0.00 71 1012.3
20260505114848 65 113 2.0 2.0 0.00 0.00 0.00 70 1012.3
20260505114348 65 249 1.0 2.0 0.00 0.00 0.00 71 1012.3
20260505113848 65 244 1.0 3.0 0.00 0.00 0.00 71 1012.3
20260505113348 65 279 1.0 1.0 0.00 0.00 0.00 71 1012.3
20260505112848 64 275 2.0 3.0 0.00 0.00 0.00 71 1012.3
20260505112348 64 221 0.0 1.0 0.00 0.00 0.00 72 1012.2
20260505111848 64 0 1.0 5.0 0.00 0.00 0.00 72 1012.1
20260505111347 63 271 1.0 2.0 0.00 0.00 0.00 73 1012.0
20260505110847 63 355 1.0 3.0 0.00 0.00 0.00 74 1012.0
20260505110347 62 83 1.0 3.0 0.00 0.00 0.00 75 1011.9
20260505101846 61 7 1.0 2.0 0.00 0.00 0.00 77 1011.4
20260505101346 61 68 0.0 1.0 0.00 0.00 0.00 77 1011.5
20260505100845 61 132 1.0 2.0 0.00 0.00 0.00 77 1011.4
20260505100345 61 130 0.0 2.0 0.00 0.00 0.00 76 1011.4
20260505095845 61 68 0.0 2.0 0.00 0.00 0.00 76 1011.4
20260505095345 61 63 0.0 2.0 0.00 0.00 0.00 75 1011.4
20260505094845 61 63 1.0 3.0 0.00 0.00 0.00 75 1011.4
20260505094345 62 273 0.0 1.0 0.00 0.00 0.00 75 1011.3
20260505093844 61 274 0.0 3.0 0.00 0.00 0.00 75 1011.2
20260505093344 61 73 1.0 2.0 0.00 0.00 0.00 76 1011.2
20260505092844 62 89 2.0 3.0 0.00 0.00 0.00 76 1011.2
20260505092344 62 26 1.0 3.0 0.00 0.00 0.00 75 1011.2
20260505091844 62 128 0.0 5.0 0.00 0.00 0.00 75 1011.2
20260505091314 62 106 5.0 8.0 0.00 0.00 0.00 75 1011.2
20260505090814 62 93 2.0 3.0 0.00 0.00 0.00 75 1011.1
20260505090313 62 92 3.0 6.0 0.00 0.00 0.00 75 1011.1
20260505085813 62 221 0.0 1.0 0.00 0.00 0.00 74 1011.1
20260505085313 62 247 2.0 2.0 0.00 0.00 0.00 74 1011.2
20260505084813 62 90 1.0 3.0 0.00 0.00 0.00 74 1011.1
20260505084313 62 85 2.0 3.0 0.00 0.00 0.00 73 1011.2
20260505083813 62 93 0.0 2.0 0.00 0.00 0.00 73 1011.1
20260505083312 62 95 1.0 3.0 0.00 0.00 0.00 73 1011.1
20260505082812 62 274 1.0 2.0 0.00 0.00 0.00 73 1011.1
20260505082312 62 72 1.0 1.0 0.00 0.00 0.00 73 1011.0
20260505081812 62 70 1.0 2.0 0.00 0.00 0.00 74 1011.0
20260505081312 62 79 1.0 3.0 0.00 0.00 0.00 74 1011.1
20260505080812 62 42 0.0 1.0 0.00 0.00 0.00 74 1011.0
20260505080312 62 96 0.0 1.0 0.00 0.00 0.00 75 1011.0
20260505075811 62 92 1.0 3.0 0.00 0.00 0.00 75 1011.1
20260505075311 62 51 2.0 3.0 0.00 0.00 0.00 75 1011.0
20260505074811 62 81 0.0 3.0 0.00 0.00 0.00 75 1011.1
20260505074241 62 88 1.0 1.0 0.00 0.00 0.00 75 1011.1
20260505073741 63 133 1.0 3.0 0.00 0.00 0.00 74 1011.1
20260505073241 63 186 1.0 7.0 0.00 0.00 0.00 74 1011.1
20260505072741 63 281 1.0 3.0 0.00 0.00 0.00 74 1011.1
20260505072240 63 69 1.0 3.0 0.00 0.00 0.00 74 1011.2
20260505071740 63 124 2.0 3.0 0.00 0.00 0.00 74 1011.1
20260505071240 63 358 1.0 3.0 0.00 0.00 0.00 74 1011.1
20260505070740 63 78 0.0 6.0 0.00 0.00 0.00 74 1011.1
20260505070240 63 118 1.0 2.0 0.00 0.00 0.00 74 1011.1
20260505065740 63 86 3.0 3.0 0.00 0.00 0.00 74 1011.1
20260505065239 63 129 2.0 6.0 0.00 0.00 0.00 75 1011.1
20260505064739 63 108 1.0 2.0 0.00 0.00 0.00 74 1011.1
20260505064239 63 28 1.0 3.0 0.00 0.00 0.00 74 1011.1
20260505063739 63 145 1.0 5.0 0.00 0.00 0.00 74 1011.1
20260505063239 63 110 2.0 3.0 0.00 0.00 0.00 74 1011.1
20260505062739 63 80 2.0 3.0 0.00 0.00 0.00 75 1011.1
20260505062239 63 102 1.0 2.0 0.00 0.00 0.00 75 1011.0
20260505061738 63 77 1.0 2.0 0.00 0.00 0.00 75 1011.0
20260505061238 63 160 2.0 3.0 0.00 0.00 0.00 76 1011.1
20260505060738 63 96 1.0 2.0 0.00 0.00 0.00 76 1011.1
20260505060238 63 70 1.0 2.0 0.00 0.00 0.00 75 1011.0
20260505055738 63 99 0.0 3.0 0.00 0.00 0.00 75 1011.1
20260505055238 63 113 2.0 5.0 0.00 0.00 0.00 75 1011.1
20260505054738 64 331 0.0 1.0 0.00 0.00 0.00 75 1011.2
20260505054237 64 93 1.0 1.0 0.00 0.00 0.00 74 1011.2
20260505053737 64 106 3.0 5.0 0.00 0.00 0.00 74 1011.2
20260505053237 64 93 2.0 3.0 0.00 0.00 0.00 74 1011.2
20260505052737 64 256 1.0 2.0 0.00 0.00 0.00 74 1011.2
20260505052237 64 110 2.0 3.0 0.00 0.00 0.00 74 1011.1
20260505051737 64 106 2.0 3.0 0.00 0.00 0.00 74 1011.2
20260505051236 64 134 1.0 2.0 0.00 0.00 0.00 73 1011.2
20260505050736 64 113 2.0 3.0 0.00 0.00 0.00 73 1011.1
20260505050236 64 39 0.0 3.0 0.00 0.00 0.00 73 1011.2
20260505041735 64 83 0.0 1.0 0.00 0.00 0.00 73 1011.0
20260505041235 64 72 0.0 2.0 0.00 0.00 0.00 72 1011.0
20260505040734 64 82 1.0 3.0 0.00 0.00 0.00 72 1011.0
20260505040234 64 100 0.0 2.0 0.00 0.00 0.00 71 1010.9
20260505035734 65 117 1.0 2.0 0.00 0.00 0.00 71 1010.9
20260505035234 65 94 1.0 2.0 0.00 0.00 0.00 70 1010.9
20260505034734 65 11 1.0 2.0 0.00 0.00 0.00 70 1010.8
20260505034234 65 92 1.0 2.0 0.00 0.00 0.00 71 1010.9
20260505033734 65 94 0.0 2.0 0.00 0.00 0.00 71 1010.8
20260505033233 65 104 5.0 7.0 0.00 0.00 0.00 71 1010.9
20260505032733 65 131 2.0 3.0 0.00 0.00 0.00 71 1011.0
20260505032233 64 112 2.0 8.0 0.00 0.00 0.00 71 1011.0
20260505031733 65 124 0.0 1.0 0.00 0.00 0.00 70 1011.1
20260505031233 65 104 2.0 5.0 0.00 0.00 0.00 69 1011.0
20260505030733 65 100 2.0 3.0 0.00 0.00 0.00 69 1010.9
20260505030233 65 103 2.0 3.0 0.00 0.00 0.00 69 1010.8
20260505025732 65 100 5.0 5.0 0.00 0.00 0.00 69 1010.8
20260505025232 65 102 2.0 6.0 0.00 0.00 0.00 68 1010.8
20260505024732 65 105 2.0 3.0 0.00 0.00 0.00 68 1010.9
20260505024232 65 111 1.0 5.0 0.00 0.00 0.00 67 1011.0
20260505023732 65 104 2.0 3.0 0.00 0.00 0.00 67 1011.1
20260505023232 66 105 2.0 8.0 0.00 0.00 0.00 66 1011.1
20260505022731 66 100 2.0 3.0 0.00 0.00 0.00 66 1011.0
20260505022231 66 92 2.0 6.0 0.00 0.00 0.00 65 1011.0
20260505021731 66 100 2.0 3.0 0.00 0.00 0.00 64 1011.0
20260505021231 66 136 1.0 3.0 0.00 0.00 0.00 63 1010.9
20260505020731 66 87 2.0 3.0 0.00 0.00 0.00 62 1010.9
20260505020231 67 146 3.0 3.0 0.00 0.00 0.00 61 1010.9
20260505015731 67 112 2.0 3.0 0.00 0.00 0.00 59 1010.9
20260505015230 67 150 2.0 6.0 0.00 0.00 0.00 59 1010.9
20260505014730 67 105 1.0 5.0 0.00 0.00 0.00 59 1010.9
20260505014230 67 90 2.0 6.0 0.00 0.00 0.00 59 1010.9
20260505013730 67 98 1.0 5.0 0.00 0.00 0.00 58 1010.9
20260505013230 67 250 2.0 3.0 0.00 0.00 0.00 58 1010.8
20260505012730 67 57 2.0 3.0 0.00 0.00 0.00 58 1010.8
20260505012230 67 44 1.0 1.0 0.00 0.00 0.00 58 1010.8
20260505011729 67 48 1.0 2.0 0.00 0.00 0.00 58 1010.8
20260505011229 67 103 1.0 3.0 0.00 0.00 0.00 57 1010.7
20260505010729 67 99 1.0 1.0 0.00 0.00 0.00 57 1010.5
20260505010229 67 180 1.0 1.0 0.00 0.00 0.00 57 1010.5
20260505005729 67 179 1.0 2.0 0.00 0.00 0.00 57 1010.5
20260505005229 67 276 1.0 2.0 0.00 0.00 0.00 57 1010.5
20260505004728 67 115 1.0 2.0 0.00 0.00 0.00 58 1010.6
20260505004228 67 115 1.0 2.0 0.00 0.00 0.00 58 1010.5
20260505003728 68 109 1.0 5.0 0.00 0.00 0.00 58 1010.5
20260505003228 68 99 2.0 6.0 0.00 0.00 0.00 57 1010.4
20260505002728 68 93 1.0 2.0 0.00 0.00 0.00 57 1010.4
20260505002228 68 86 1.0 3.0 0.00 0.00 0.00 56 1010.4
20260505001728 68 113 2.0 2.0 0.00 0.00 0.00 55 1010.3
20260505001227 68 120 2.0 3.0 0.00 0.00 0.00 54 1010.4
20260505000727 69 102 2.0 5.0 0.00 0.00 0.00 53 1010.3
20260505000227 69 110 3.0 5.0 0.00 0.00 0.00 52 1010.3
20260504235727 69 96 3.0 3.0 0.00 0.00 0.00 52 1010.5
20260504235227 69 110 1.0 3.0 0.00 0.00 0.00 51 1010.4
20260504234727 70 103 3.0 7.0 0.00 0.00 0.00 49 1010.5
20260504234227 70 100 1.0 5.0 0.00 0.00 0.00 49 1010.4
20260504233726 71 109 1.0 3.0 0.00 0.00 0.00 47 1010.3
20260504233226 71 100 1.0 2.0 0.00 0.00 0.00 46 1010.4
20260504232726 71 100 2.0 6.0 0.00 0.00 0.00 46 1010.3
20260504232226 71 129 1.0 2.0 0.00 0.00 0.00 46 1010.3
20260504231726 72 110 1.0 3.0 0.00 0.00 0.00 46 1010.3
20260504231226 72 90 2.0 5.0 0.00 0.00 0.00 46 1010.4
20260504230725 72 113 1.0 3.0 0.00 0.00 0.00 47 1010.3
20260504230225 72 93 2.0 3.0 0.00 0.00 0.00 48 1010.3
20260504225725 72 105 2.0 9.0 0.00 0.00 0.00 47 1010.3
20260504225225 73 102 3.0 5.0 0.00 0.00 0.00 47 1010.3
20260504224725 73 219 1.0 6.0 0.00 0.00 0.00 46 1010.3
20260504224225 73 71 5.0 8.0 0.00 0.00 0.00 46 1010.2
20260504223725 74 224 2.0 3.0 0.00 0.00 0.00 46 1010.2
20260504223224 74 81 2.0 5.0 0.00 0.00 0.00 47 1010.2
20260504222724 74 74 2.0 5.0 0.00 0.00 0.00 45 1010.3
20260504222224 74 90 2.0 5.0 0.00 0.00 0.00 47 1010.3
20260504221724 74 139 2.0 3.0 0.00 0.00 0.00 45 1010.1
20260504221224 74 95 1.0 2.0 0.00 0.00 0.00 47 1010.2
20260504220724 75 108 2.0 5.0 0.00 0.00 0.00 45 1010.2
20260504220224 75 112 2.0 5.0 0.00 0.00 0.00 44 1010.2
20260504215723 75 116 1.0 3.0 0.00 0.00 0.00 45 1010.2
20260504215223 75 97 1.0 3.0 0.00 0.00 0.00 45 1010.3
20260504214723 75 99 2.0 7.0 0.00 0.00 0.00 44 1010.3
20260504214223 75 125 2.0 6.0 0.00 0.00 0.00 43 1010.2
20260504213723 75 259 2.0 6.0 0.00 0.00 0.00 42 1010.3
20260504213223 75 146 2.0 7.0 0.00 0.00 0.00 43 1010.3
20260504212722 75 93 1.0 3.0 0.00 0.00 0.00 43 1010.3
20260504212222 75 89 1.0 5.0 0.00 0.00 0.00 44 1010.3
20260504211722 75 91 3.0 3.0 0.00 0.00 0.00 43 1010.4
20260504211222 75 105 2.0 5.0 0.00 0.00 0.00 44 1010.4
20260504210722 75 226 2.0 5.0 0.00 0.00 0.00 43 1010.5
20260504210222 75 122 2.0 5.0 0.00 0.00 0.00 43 1010.5
20260504205722 75 276 2.0 3.0 0.00 0.00 0.00 42 1010.5
20260504205221 75 90 1.0 3.0 0.00 0.00 0.00 43 1010.5
20260504204721 75 213 2.0 9.0 0.00 0.00 0.00 43 1010.5
20260504204221 75 250 2.0 5.0 0.00 0.00 0.00 42 1010.6
20260504203721 75 108 3.0 5.0 0.00 0.00 0.00 42 1010.6
20260504203221 75 143 2.0 6.0 0.00 0.00 0.00 42 1010.7
20260504202721 75 101 3.0 5.0 0.00 0.00 0.00 41 1010.8
20260504202220 74 103 3.0 5.0 0.00 0.00 0.00 42 1011.0
20260504201720 74 144 3.0 8.0 0.00 0.00 0.00 42 1011.0
20260504201220 74 103 3.0 3.0 0.00 0.00 0.00 42 1011.1
20260504200720 74 153 2.0 5.0 0.00 0.00 0.00 41 1011.1
20260504200220 74 176 1.0 7.0 0.00 0.00 0.00 42 1011.2
20260504195720 74 161 2.0 3.0 0.00 0.00 0.00 43 1011.2
20260504195220 74 198 1.0 3.0 0.00 0.00 0.00 42 1011.3
20260504194719 74 338 2.0 5.0 0.00 0.00 0.00 43 1011.3
20260504194219 74 113 2.0 3.0 0.00 0.00 0.00 42 1011.4
20260504193719 74 180 2.0 3.0 0.00 0.00 0.00 43 1011.5
20260504193219 74 214 2.0 5.0 0.00 0.00 0.00 41 1011.5
20260504192719 74 138 2.0 3.0 0.00 0.00 0.00 43 1011.6
20260504192219 74 245 3.0 7.0 0.00 0.00 0.00 42 1011.6
20260504191719 74 92 1.0 3.0 0.00 0.00 0.00 45 1011.7
20260504191218 73 184 2.0 3.0 0.00 0.00 0.00 43 1011.8
20260504190718 73 256 2.0 5.0 0.00 0.00 0.00 43 1011.9
20260504190218 73 163 2.0 10.0 0.00 0.00 0.00 45 1012.0
20260504185718 73 347 1.0 2.0 0.00 0.00 0.00 45 1012.1
20260504185218 72 91 2.0 5.0 0.00 0.00 0.00 44 1012.2
20260504184718 72 156 3.0 7.0 0.00 0.00 0.00 44 1012.2
20260504184217 73 95 1.0 8.0 0.00 0.00 0.00 46 1012.3
20260504183717 72 241 5.0 8.0 0.00 0.00 0.00 43 1012.3
20260504183217 72 253 2.0 5.0 0.00 0.00 0.00 42 1012.3
20260504182717 72 106 2.0 3.0 0.00 0.00 0.00 42 1012.4
20260504182217 72 155 2.0 7.0 0.00 0.00 0.00 42 1012.4
20260504181717 72 93 2.0 3.0 0.00 0.00 0.00 42 1012.6
20260504181217 72 252 1.0 3.0 0.00 0.00 0.00 43 1012.7
20260504180716 71 254 1.0 3.0 0.00 0.00 0.00 42 1012.7
20260504180216 72 226 3.0 8.0 0.00 0.00 0.00 40 1012.8
20260504175716 71 203 2.0 5.0 0.00 0.00 0.00 41 1012.7
20260504175216 71 98 5.0 6.0 0.00 0.00 0.00 42 1012.8
20260504174716 71 249 6.0 10.0 0.00 0.00 0.00 40 1012.9
20260504174216 70 244 2.0 3.0 0.00 0.00 0.00 39 1013.0
20260504173645 70 224 1.0 3.0 0.00 0.00 0.00 43 1012.9
20260504173145 70 236 2.0 3.0 0.00 0.00 0.00 44 1013.1
20260504172645 70 261 3.0 8.0 0.00 0.00 0.00 48 1013.0
20260504172145 70 268 3.0 6.0 0.00 0.00 0.00 46 1013.2
20260504171645 70 129 1.0 3.0 0.00 0.00 0.00 47 1013.2
20260504171145 70 249 3.0 7.0 0.00 0.00 0.00 47 1013.2
20260504170645 70 257 5.0 8.0 0.00 0.00 0.00 44 1013.2
20260504170144 70 259 2.0 6.0 0.00 0.00 0.00 46 1013.2